This is the latest recevied weather packets stored in our database for station/object KM4KMS. If no packets are shown the sender has not sent any weather packets the latest 10 day(s).
| Time | Temp. | Humidity | Pressure | Rain* | Wind** | Luminosity | Snow |
|---|---|---|---|---|---|---|---|
| 1777934621 | 24.44° C | 49% | 1006.9 hPa | 0 mm | - | 161 W/m² | - |
| 1777934318 | 24.44° C | 51% | 1006.8 hPa | 0 mm | - | 223 W/m² | - |
| 1777934013 | 25° C | 51% | 1006.7 hPa | 0 mm | - | 93 W/m² | - |
| 1777933710 | 25° C | 51% | 1006.8 hPa | 0 mm | - | 257 W/m² | - |
| 1777933407 | 25° C | 52% | 1007 hPa | 0 mm | - | 274 W/m² | - |
| 1777933106 | 25° C | 51% | 1006.9 hPa | 0 mm | - | 259 W/m² | - |
| 1777932802 | 25° C | 52% | 1006.9 hPa | 0 mm | - | 201 W/m² | - |
| 1777932499 | 25° C | 52% | 1007 hPa | 0 mm | - | 300 W/m² | - |
| 1777932196 | 25° C | 52% | 1007 hPa | 0 mm | - | 348 W/m² | - |
| 1777931893 | 25° C | 53% | 1007 hPa | 0 mm | - | 321 W/m² | - |
| 1777931589 | 24.44° C | 53% | 1007 hPa | 0 mm | - | 117 W/m² | - |
| 1777931286 | 25° C | 52% | 1007 hPa | 0 mm | - | 124 W/m² | - |
| 1777930983 | 24.44° C | 53% | 1007.1 hPa | 0 mm | - | 261 W/m² | - |
| 1777930679 | 24.44° C | 53% | 1007.3 hPa | 0 mm | - | 225 W/m² | - |
| 1777930375 | 24.44° C | 53% | 1007.3 hPa | 0 mm | - | 154 W/m² | - |
| 1777930073 | 24.44° C | 51% | 1007.2 hPa | 0 mm | - | 118 W/m² | - |
| 1777929769 | 24.44° C | 52% | 1007.4 hPa | 0 mm | - | 366 W/m² | - |
| 1777929466 | 25° C | 51% | 1007.5 hPa | 0 mm | - | 466 W/m² | - |
| 1777929162 | 25.56° C | 50% | 1007.5 hPa | 0 mm | - | 432 W/m² | - |
| 1777928860 | 25.56° C | 48% | 1007.4 hPa | 0 mm | - | 477 W/m² | - |
| 1777928557 | 25° C | 50% | 1007.4 hPa | 0 mm | - | 449 W/m² | - |
| 1777928254 | 25° C | 47% | 1007.4 hPa | 0 mm | - | 471 W/m² | - |
| 1777927952 | 25° C | 50% | 1007.4 hPa | 0 mm | - | 323 W/m² | - |
| 1777927650 | 25° C | 48% | 1007.4 hPa | 0 mm | - | 433 W/m² | - |
| 1777927348 | 25° C | 51% | 1007.2 hPa | 0 mm | - | 511 W/m² | - |
* Rain latest hour (hover to see other rain measurements)
** Current wind speed in m/s (hover to see current wind gust speed)